AAR178 RKSI-RJTT

Flight info

Callsign AAR178
Flight time 1h 36m
Altitude 35000
Route EGOBA2E EGOBA Y697 LANAT Y71 XAC XAC1K
Aircraft A321/M-SDE3FGHIRWY/LB1

Departure

Time 2026-05-04 12:29
Airport Incheon International Airport (RKSI)

Arrival

Time 2026-05-04 14:05
Airport Tokyo Haneda International Airport (RJTT)
Time Latitude Longitude Altitude Speed Heading
2026-05-04 11:49 37.46301 126.43452 33 ft 0 kts 235°
2026-05-04 12:16 37.46307 126.43462 32 ft 3 kts 235°
2026-05-04 12:16 37.46319 126.43483 33 ft 3 kts 235°
2026-05-04 12:16 37.46330 126.43504 33 ft 3 kts 230°
2026-05-04 12:16 37.46344 126.43521 31 ft 3 kts 212°
2026-05-04 12:17 37.46355 126.43529 31 ft 3 kts 195°
2026-05-04 12:17 37.46373 126.43532 33 ft 3 kts 165°
2026-05-04 12:17 37.46390 126.43523 33 ft 0 kts 146°
2026-05-04 12:21 37.46385 126.43527 31 ft 4 kts 146°
2026-05-04 12:21 37.46328 126.43577 33 ft 12 kts 144°
2026-05-04 12:21 37.46257 126.43642 33 ft 13 kts 143°
2026-05-04 12:21 37.46180 126.43709 32 ft 14 kts 144°
2026-05-04 12:22 37.46157 126.43805 33 ft 13 kts 60°
2026-05-04 12:22 37.46210 126.43897 33 ft 14 kts 55°
2026-05-04 12:22 37.46289 126.44038 33 ft 23 kts 54°
2026-05-04 12:22 37.46383 126.44204 33 ft 23 kts 54°
2026-05-04 12:23 37.46477 126.44369 33 ft 22 kts 54°
2026-05-04 12:23 37.46551 126.44517 33 ft 16 kts 62°
2026-05-04 12:23 37.46575 126.44636 30 ft 14 kts 123°
2026-05-04 12:23 37.46495 126.44714 32 ft 17 kts 144°
2026-05-04 12:24 37.46372 126.44824 31 ft 24 kts 144°
2026-05-04 12:24 37.46238 126.44943 33 ft 24 kts 145°
2026-05-04 12:24 37.46100 126.45065 33 ft 24 kts 145°
2026-05-04 12:24 37.45961 126.45187 32 ft 24 kts 144°
2026-05-04 12:25 37.45823 126.45313 32 ft 25 kts 145°
2026-05-04 12:25 37.45683 126.45437 32 ft 25 kts 145°
2026-05-04 12:25 37.45544 126.45561 32 ft 24 kts 144°
2026-05-04 12:25 37.45416 126.45675 32 ft 20 kts 145°
2026-05-04 12:26 37.45312 126.45768 32 ft 16 kts 144°
2026-05-04 12:26 37.45304 126.45854 31 ft 11 kts 58°
2026-05-04 12:26 37.45339 126.45918 32 ft 7 kts 56°
2026-05-04 12:26 37.45368 126.45970 32 ft 7 kts 54°
2026-05-04 12:27 37.45406 126.46036 32 ft 12 kts 52°
2026-05-04 12:27 37.45475 126.46041 31 ft 8 kts 323°
2026-05-04 12:27 37.45479 126.46037 32 ft 0 kts 323°
2026-05-04 12:27 37.45485 126.46031 30 ft 6 kts 323°
2026-05-04 12:28 37.45668 126.45869 33 ft 67 kts 325°
2026-05-04 12:28 37.46227 126.45371 32 ft 128 kts 324°
2026-05-04 12:28 37.47100 126.44597 36 ft 176 kts 322°
2026-05-04 12:28 37.48145 126.43673 469 ft 184 kts 323°
2026-05-04 12:29 37.49216 126.42792 1146 ft 184 kts 324°
2026-05-04 12:29 37.50292 126.41915 1808 ft 184 kts 324°
2026-05-04 12:29 37.51401 126.41004 2017 ft 200 kts 324°
2026-05-04 12:29 37.52636 126.39991 2182 ft 221 kts 325°
2026-05-04 12:30 37.53945 126.38917 2694 ft 228 kts 324°
2026-05-04 12:30 37.55274 126.37822 3431 ft 229 kts 325°
2026-05-04 12:30 37.56744 126.37003 4111 ft 234 kts 342°
2026-05-04 12:30 37.58323 126.36456 4816 ft 236 kts 342°
2026-05-04 12:31 37.59917 126.35894 5494 ft 239 kts 342°
2026-05-04 12:31 37.61533 126.35345 6177 ft 243 kts 348°
2026-05-04 12:31 37.63223 126.35491 6796 ft 251 kts 20°
2026-05-04 12:31 37.64670 126.36794 7174 ft 271 kts 52°
2026-05-04 12:32 37.65491 126.38991 7644 ft 283 kts 68°
2026-05-04 12:32 37.66601 126.43841 8959 ft 292 kts 84°
2026-05-04 12:32 37.66472 126.46374 9616 ft 296 kts 101°
2026-05-04 12:33 37.65831 126.48866 10214 ft 303 kts 109°
2026-05-04 12:33 37.65063 126.51448 10337 ft 325 kts 111°
2026-05-04 12:33 37.63975 126.54097 10467 ft 347 kts 122°
2026-05-04 12:33 37.62474 126.56544 10589 ft 367 kts 133°
2026-05-04 12:34 37.60544 126.58809 10911 ft 379 kts 137°
2026-05-04 12:34 37.58595 126.61016 11450 ft 383 kts 137°
2026-05-04 12:34 37.56615 126.63276 12051 ft 386 kts 137°
2026-05-04 12:34 37.54620 126.65560 12652 ft 389 kts 137°
2026-05-04 12:35 37.52619 126.67852 13228 ft 392 kts 137°
2026-05-04 12:35 37.50584 126.70181 13834 ft 395 kts 137°
2026-05-04 12:35 37.48539 126.72515 14361 ft 399 kts 137°
2026-05-04 12:35 37.46470 126.74874 14887 ft 402 kts 137°
2026-05-04 12:36 37.44508 126.77385 15422 ft 404 kts 128°
2026-05-04 12:36 37.42957 126.80335 15912 ft 406 kts 116°
2026-05-04 12:36 37.41904 126.83635 16435 ft 407 kts 104°
2026-05-04 12:36 37.41389 126.87129 16950 ft 408 kts 92°
2026-05-04 12:37 37.41348 126.90704 17482 ft 409 kts 86°
2026-05-04 12:37 37.41604 126.94261 18028 ft 409 kts 77°
2026-05-04 12:37 37.42183 126.97773 18521 ft 412 kts 75°
2026-05-04 12:37 37.42777 127.01313 18979 ft 414 kts 75°
2026-05-04 12:38 37.43370 127.04864 19427 ft 417 kts 75°
2026-05-04 12:38 37.43961 127.08453 19855 ft 420 kts 76°
2026-05-04 12:38 37.44547 127.12051 20279 ft 423 kts 76°
2026-05-04 12:38 37.45139 127.15701 20708 ft 426 kts 76°
2026-05-04 12:39 37.45734 127.19365 21116 ft 428 kts 75°
2026-05-04 12:39 37.46333 127.23054 21531 ft 431 kts 75°
2026-05-04 12:39 37.46935 127.26761 21928 ft 434 kts 75°
2026-05-04 12:39 37.47543 127.30502 22295 ft 437 kts 75°
2026-05-04 12:40 37.48152 127.34258 22694 ft 439 kts 75°
2026-05-04 12:40 37.48764 127.38039 23081 ft 442 kts 75°
2026-05-04 12:40 37.49372 127.41807 23465 ft 444 kts 75°
2026-05-04 12:40 37.49994 127.45662 23806 ft 447 kts 75°
2026-05-04 12:41 37.50611 127.49495 24110 ft 450 kts 75°
2026-05-04 12:41 37.51235 127.53388 24412 ft 453 kts 75°
2026-05-04 12:41 37.51858 127.57287 24707 ft 456 kts 75°
2026-05-04 12:41 37.52483 127.61213 24996 ft 459 kts 75°
2026-05-04 12:42 37.53111 127.65168 25277 ft 462 kts 75°
2026-05-04 12:42 37.53743 127.69149 25556 ft 465 kts 75°
2026-05-04 12:42 37.54380 127.73155 25834 ft 468 kts 76°
2026-05-04 12:42 37.55018 127.77185 26112 ft 470 kts 76°
2026-05-04 12:43 37.55657 127.81237 26382 ft 473 kts 76°
2026-05-04 12:43 37.56301 127.85318 26654 ft 476 kts 76°
2026-05-04 12:43 37.56948 127.89431 26930 ft 479 kts 76°
2026-05-04 12:43 37.57596 127.93564 27205 ft 482 kts 76°
2026-05-04 12:44 37.58248 127.97724 27467 ft 485 kts 76°
2026-05-04 12:44 37.58903 128.01905 27731 ft 488 kts 76°
2026-05-04 12:44 37.59568 128.06164 28085 ft 489 kts 76°
2026-05-04 12:44 37.60210 128.10312 28475 ft 489 kts 76°
2026-05-04 12:45 37.60868 128.14578 28845 ft 489 kts 76°
2026-05-04 12:45 37.61511 128.18734 29215 ft 489 kts 76°
2026-05-04 12:45 37.62168 128.23005 29598 ft 490 kts 76°
2026-05-04 12:45 37.62816 128.27225 29944 ft 490 kts 76°
2026-05-04 12:46 37.63465 128.31446 30294 ft 490 kts 76°
2026-05-04 12:46 37.64111 128.35675 30593 ft 491 kts 77°
2026-05-04 12:46 37.64754 128.39904 30850 ft 492 kts 77°
2026-05-04 12:46 37.65402 128.44159 31117 ft 494 kts 77°
2026-05-04 12:47 37.66046 128.48416 31380 ft 495 kts 77°
2026-05-04 12:47 37.66689 128.52688 31655 ft 496 kts 77°
2026-05-04 12:47 37.67326 128.56913 31904 ft 497 kts 77°
2026-05-04 12:47 37.67983 128.61262 32154 ft 498 kts 77°
2026-05-04 12:48 37.68617 128.65507 32395 ft 500 kts 79°
2026-05-04 12:48 37.68920 128.69887 32622 ft 503 kts 90°
2026-05-04 12:48 37.68658 128.74288 32850 ft 504 kts 100°
2026-05-04 12:48 37.67843 128.78589 33069 ft 504 kts 110°
2026-05-04 12:49 37.66520 128.82666 33283 ft 502 kts 120°
2026-05-04 12:49 37.64758 128.86524 33512 ft 500 kts 124°
2026-05-04 12:49 37.62983 128.90234 33767 ft 501 kts 125°
2026-05-04 12:49 37.61182 128.93993 34025 ft 501 kts 125°
2026-05-04 12:50 37.59375 128.97761 34223 ft 502 kts 125°
2026-05-04 12:50 37.57565 129.01524 34417 ft 503 kts 125°
2026-05-04 12:50 37.55748 129.05296 34602 ft 503 kts 126°
2026-05-04 12:50 37.53930 129.09062 34803 ft 504 kts 126°
2026-05-04 12:51 37.52101 129.12842 34976 ft 505 kts 126°
2026-05-04 12:51 37.48436 129.20427 35053 ft 508 kts 126°
2026-05-04 12:52 37.44761 129.28036 35055 ft 509 kts 126°
2026-05-04 12:52 37.41077 129.35650 35057 ft 510 kts 126°
2026-05-04 12:53 37.37370 129.43275 35058 ft 511 kts 127°
2026-05-04 12:53 37.33658 129.50880 35060 ft 511 kts 127°
2026-05-04 12:54 37.29935 129.58501 35064 ft 512 kts 127°
2026-05-04 12:54 37.26205 129.66120 35070 ft 513 kts 127°
2026-05-04 12:55 37.22467 129.73751 35073 ft 513 kts 127°
2026-05-04 12:55 37.18723 129.81369 35077 ft 514 kts 127°
2026-05-04 12:56 37.14965 129.88996 35084 ft 514 kts 127°
2026-05-04 12:56 37.11204 129.96617 35085 ft 514 kts 128°
2026-05-04 12:57 37.08045 130.03007 35084 ft 515 kts 128°
2026-05-04 12:57 37.04271 130.10626 35086 ft 515 kts 128°
2026-05-04 12:58 37.00483 130.18240 35090 ft 515 kts 128°
2026-05-04 12:58 36.96690 130.25844 35094 ft 516 kts 128°
2026-05-04 12:59 36.92885 130.33441 35087 ft 516 kts 129°
2026-05-04 12:59 36.89072 130.41040 35087 ft 516 kts 129°
2026-05-04 13:00 36.85262 130.48638 35086 ft 517 kts 129°
2026-05-04 13:00 36.81432 130.56242 35092 ft 517 kts 129°
2026-05-04 13:01 36.77604 130.63832 35096 ft 517 kts 129°
2026-05-04 13:01 36.73770 130.71436 35093 ft 518 kts 130°
2026-05-04 13:02 36.69935 130.79037 35099 ft 518 kts 130°
2026-05-04 13:02 36.66093 130.86631 35105 ft 518 kts 130°
2026-05-04 13:03 36.62241 130.94210 35101 ft 518 kts 131°
2026-05-04 13:03 36.58374 131.01775 35104 ft 518 kts 131°
2026-05-04 13:04 36.54508 131.09329 35102 ft 518 kts 131°
2026-05-04 13:04 36.50644 131.16888 35100 ft 518 kts 131°
2026-05-04 13:05 36.46774 131.24446 35101 ft 518 kts 132°
2026-05-04 13:05 36.42899 131.31996 35106 ft 518 kts 132°
2026-05-04 13:06 36.39016 131.39524 35102 ft 518 kts 132°
2026-05-04 13:06 36.37260 131.43468 35103 ft 529 kts 123°
2026-05-04 13:06 36.35885 131.47748 35105 ft 537 kts 117°
2026-05-04 13:07 36.33402 131.56491 35105 ft 538 kts 117°
2026-05-04 13:07 36.30905 131.65244 35104 ft 538 kts 118°
2026-05-04 13:08 36.28390 131.73987 35094 ft 539 kts 118°
2026-05-04 13:08 36.25867 131.82731 35091 ft 539 kts 119°
2026-05-04 13:09 36.23331 131.91487 35090 ft 540 kts 119°
2026-05-04 13:09 36.20776 132.00243 35090 ft 540 kts 120°
2026-05-04 13:10 36.18214 132.08985 35101 ft 541 kts 120°
2026-05-04 13:10 36.15650 132.17752 35100 ft 541 kts 120°
2026-05-04 13:11 36.13086 132.26514 35102 ft 542 kts 120°
2026-05-04 13:11 36.10511 132.35277 35107 ft 542 kts 120°
2026-05-04 13:12 36.07921 132.44025 35106 ft 542 kts 120°
2026-05-04 13:12 36.05332 132.52778 35116 ft 542 kts 120°
2026-05-04 13:13 36.02743 132.61535 35120 ft 542 kts 120°
2026-05-04 13:13 36.00145 132.70282 35113 ft 542 kts 121°
2026-05-04 13:14 35.97537 132.79005 35113 ft 542 kts 121°
2026-05-04 13:14 35.94923 132.87721 35120 ft 541 kts 121°
2026-05-04 13:15 35.92305 132.96418 35122 ft 541 kts 121°
2026-05-04 13:15 35.89678 133.05115 35122 ft 541 kts 121°
2026-05-04 13:16 35.87051 133.13803 35119 ft 540 kts 122°
2026-05-04 13:16 35.84419 133.22477 35124 ft 540 kts 122°
2026-05-04 13:17 35.81776 133.31146 35123 ft 540 kts 122°
2026-05-04 13:17 35.79123 133.39795 35109 ft 540 kts 122°
2026-05-04 13:18 35.76478 133.48452 35110 ft 540 kts 122°
2026-05-04 13:18 35.73830 133.57116 35115 ft 540 kts 122°
2026-05-04 13:19 35.71165 133.65764 35109 ft 540 kts 122°
2026-05-04 13:19 35.68487 133.74405 35114 ft 541 kts 122°
2026-05-04 13:20 35.65803 133.83043 35124 ft 541 kts 122°
2026-05-04 13:20 35.63123 133.91682 35120 ft 541 kts 122°
2026-05-04 13:21 35.60434 134.00316 35122 ft 541 kts 122°
2026-05-04 13:21 35.57736 134.08935 35121 ft 540 kts 122°
2026-05-04 13:22 35.55035 134.17542 35122 ft 540 kts 122°
2026-05-04 13:22 35.52332 134.26140 35117 ft 540 kts 122°
2026-05-04 13:23 35.49627 134.34718 35122 ft 539 kts 122°
2026-05-04 13:23 35.46908 134.43290 35124 ft 538 kts 122°
2026-05-04 13:24 35.44195 134.51831 35111 ft 537 kts 122°
2026-05-04 13:24 35.41479 134.60373 35118 ft 537 kts 122°
2026-05-04 13:25 35.37403 134.73151 35110 ft 536 kts 122°
2026-05-04 13:25 35.34678 134.81652 35109 ft 536 kts 122°
2026-05-04 13:26 35.31948 134.90134 35110 ft 535 kts 122°
2026-05-04 13:26 35.29212 134.98597 35105 ft 535 kts 122°
2026-05-04 13:27 35.26476 135.07062 35094 ft 535 kts 122°
2026-05-04 13:27 35.23739 135.15536 35094 ft 535 kts 123°
2026-05-04 13:28 35.20988 135.23989 35091 ft 535 kts 123°
2026-05-04 13:28 35.18228 135.32424 35088 ft 534 kts 123°
2026-05-04 13:29 35.15471 135.40858 35085 ft 534 kts 123°
2026-05-04 13:29 35.12715 135.49281 35085 ft 534 kts 123°
2026-05-04 13:30 35.09947 135.57689 35075 ft 533 kts 123°
2026-05-04 13:30 35.07176 135.66086 35067 ft 533 kts 123°
2026-05-04 13:31 35.04409 135.74466 35070 ft 532 kts 123°
2026-05-04 13:31 35.01771 135.82937 35058 ft 542 kts 116°
2026-05-04 13:32 35.00184 135.92036 35055 ft 551 kts 110°
2026-05-04 13:32 34.98710 136.01196 35058 ft 550 kts 111°
2026-05-04 13:33 34.97214 136.10332 35057 ft 549 kts 111°
2026-05-04 13:33 34.95715 136.19445 35042 ft 548 kts 111°
2026-05-04 13:34 34.94214 136.28553 35044 ft 547 kts 111°
2026-05-04 13:34 34.92964 136.36170 35043 ft 547 kts 111°
2026-05-04 13:35 34.90689 136.49758 35018 ft 545 kts 111°
2026-05-04 13:36 34.89164 136.58802 35001 ft 546 kts 111°
2026-05-04 13:36 34.87632 136.67857 34999 ft 546 kts 112°
2026-05-04 13:37 34.86105 136.76920 34995 ft 547 kts 111°
2026-05-04 13:37 34.84580 136.86006 34982 ft 547 kts 112°
2026-05-04 13:38 34.83055 136.95077 34979 ft 549 kts 111°
2026-05-04 13:38 34.81817 137.04294 34972 ft 555 kts 107°
2026-05-04 13:39 34.80902 137.13645 34965 ft 557 kts 106°
2026-05-04 13:39 34.79994 137.22995 34954 ft 556 kts 107°
2026-05-04 13:40 34.78954 137.32298 34950 ft 554 kts 108°
2026-05-04 13:40 34.77853 137.41570 34948 ft 554 kts 109°
2026-05-04 13:41 34.76765 137.50850 34950 ft 554 kts 108°
2026-05-04 13:41 34.75707 137.60136 34941 ft 554 kts 108°
2026-05-04 13:42 34.74146 137.74064 34932 ft 555 kts 107°
2026-05-04 13:42 34.73278 137.83395 34912 ft 556 kts 106°
2026-05-04 13:43 34.72451 137.92739 34900 ft 555 kts 106°
2026-05-04 13:43 34.71586 138.02049 34884 ft 556 kts 103°
2026-05-04 13:44 34.71455 138.06781 34737 ft 561 kts 98°
2026-05-04 13:44 34.71455 138.11516 34203 ft 560 kts 98°
2026-05-04 13:44 34.71471 138.16236 33650 ft 559 kts 98°
2026-05-04 13:44 34.71495 138.20972 33007 ft 558 kts 98°
2026-05-04 13:45 34.71520 138.25668 32093 ft 559 kts 97°
2026-05-04 13:45 34.71541 138.30402 31414 ft 560 kts 97°
2026-05-04 13:45 34.71556 138.35143 30733 ft 561 kts 97°
2026-05-04 13:45 34.71566 138.39887 30038 ft 562 kts 97°
2026-05-04 13:46 34.71573 138.44647 29225 ft 564 kts 97°
2026-05-04 13:46 34.71578 138.49416 28376 ft 565 kts 96°
2026-05-04 13:46 34.71579 138.54199 27612 ft 566 kts 96°
2026-05-04 13:46 34.71581 138.58954 27055 ft 561 kts 96°
2026-05-04 13:47 34.71585 138.63676 26484 ft 556 kts 96°
2026-05-04 13:47 34.71586 138.68351 25911 ft 551 kts 96°
2026-05-04 13:47 34.71583 138.72990 25351 ft 547 kts 96°
2026-05-04 13:47 34.71576 138.77586 24819 ft 542 kts 96°
2026-05-04 13:48 34.71566 138.82159 24251 ft 538 kts 96°
2026-05-04 13:48 34.71553 138.86685 23710 ft 534 kts 96°
2026-05-04 13:48 34.71538 138.91182 23153 ft 529 kts 96°
2026-05-04 13:48 34.71521 138.95634 22537 ft 524 kts 96°
2026-05-04 13:49 34.71503 139.00023 22005 ft 517 kts 95°
2026-05-04 13:49 34.71484 139.04367 21481 ft 511 kts 95°
2026-05-04 13:49 34.71463 139.08660 20966 ft 505 kts 95°
2026-05-04 13:49 34.71438 139.12901 20465 ft 499 kts 95°
2026-05-04 13:50 34.71412 139.17093 19983 ft 493 kts 95°
2026-05-04 13:50 34.71385 139.21232 19511 ft 488 kts 94°
2026-05-04 13:50 34.71358 139.25337 19061 ft 483 kts 94°
2026-05-04 13:50 34.71330 139.29396 18624 ft 477 kts 94°
2026-05-04 13:51 34.71300 139.33406 18203 ft 473 kts 94°
2026-05-04 13:51 34.71405 139.37381 17741 ft 471 kts 86°
2026-05-04 13:51 34.72009 139.41279 17293 ft 468 kts 75°
2026-05-04 13:51 34.73111 139.44976 16788 ft 464 kts 64°
2026-05-04 13:52 34.76364 139.51642 15788 ft 452 kts 47°
2026-05-04 13:52 34.78576 139.54271 15303 ft 442 kts 37°
2026-05-04 13:52 34.80831 139.56804 14807 ft 440 kts 39°
2026-05-04 13:53 34.83016 139.59391 14325 ft 436 kts 40°
2026-05-04 13:53 34.85149 139.61997 13851 ft 432 kts 41°
2026-05-04 13:53 34.87255 139.64590 13326 ft 428 kts 41°
2026-05-04 13:54 34.91412 139.69654 12357 ft 417 kts 40°
2026-05-04 13:54 34.93456 139.72112 11898 ft 410 kts 40°
2026-05-04 13:54 34.97416 139.76845 11437 ft 379 kts 40°
2026-05-04 13:55 34.99241 139.79031 11304 ft 357 kts 40°
2026-05-04 13:55 35.02688 139.82933 10846 ft 321 kts 27°
2026-05-04 13:55 35.04660 139.84017 10427 ft 304 kts
2026-05-04 13:56 35.06707 139.84268 9981 ft 290 kts 350°
2026-05-04 13:56 35.08280 139.84012 9565 ft 286 kts 346°
2026-05-04 13:56 35.12156 139.83195 8520 ft 280 kts 346°
2026-05-04 13:57 35.14061 139.82776 8020 ft 276 kts 347°
2026-05-04 13:57 35.15942 139.82361 7539 ft 273 kts 347°
2026-05-04 13:58 35.21472 139.81165 6119 ft 264 kts 348°
2026-05-04 13:58 35.24918 139.80234 5225 ft 255 kts 343°
2026-05-04 13:58 35.26681 139.79623 4753 ft 252 kts 342°
2026-05-04 13:59 35.28348 139.79028 4321 ft 248 kts 342°
2026-05-04 13:59 35.29990 139.78439 3856 ft 244 kts 343°
2026-05-04 13:59 35.33184 139.79042 2916 ft 243 kts 28°
2026-05-04 14:00 35.34617 139.80139 2450 ft 243 kts 28°
2026-05-04 14:00 35.37358 139.82280 2293 ft 220 kts 27°
2026-05-04 14:00 35.38599 139.83252 2289 ft 204 kts 27°
2026-05-04 14:01 35.39735 139.84145 2306 ft 184 kts 25°
2026-05-04 14:01 35.40764 139.84893 2313 ft 158 kts 15°
2026-05-04 14:01 35.42742 139.85146 2323 ft 138 kts 355°
2026-05-04 14:02 35.43699 139.85144 2318 ft 137 kts 355°
2026-05-04 14:02 35.44617 139.84963 2302 ft 133 kts 335°
2026-05-04 14:02 35.45431 139.84403 2183 ft 136 kts 331°
2026-05-04 14:02 35.46243 139.83827 1811 ft 134 kts 332°
2026-05-04 14:03 35.47048 139.83257 1566 ft 132 kts 330°
2026-05-04 14:03 35.47853 139.82689 1385 ft 134 kts 332°
2026-05-04 14:03 35.48657 139.82117 1160 ft 133 kts 332°
2026-05-04 14:03 35.49453 139.81547 983 ft 132 kts 333°
2026-05-04 14:04 35.51078 139.80397 632 ft 134 kts 332°
2026-05-04 14:04 35.51880 139.79827 469 ft 133 kts 332°
2026-05-04 14:04 35.52684 139.79258 296 ft 133 kts 333°
2026-05-04 14:05 35.54292 139.78121 44 ft 133 kts 331°
2026-05-04 14:05 35.55011 139.77612 23 ft 98 kts 330°
2026-05-04 14:05 35.55341 139.77372 23 ft 31 kts 326°
2026-05-04 14:06 35.55476 139.77224 22 ft 19 kts 298°
2026-05-04 14:06 35.55535 139.77103 21 ft 15 kts 300°
2026-05-04 14:06 35.55571 139.77005 23 ft 11 kts 273°
2026-05-04 14:06 35.55521 139.76991 23 ft 10 kts 153°
2026-05-04 14:07 35.55454 139.77038 22 ft 12 kts 150°
2026-05-04 14:07 35.55372 139.77096 22 ft 16 kts 150°
2026-05-04 14:07 35.55241 139.77189 23 ft 24 kts 150°
2026-05-04 14:07 35.55096 139.77289 21 ft 25 kts 148°
2026-05-04 14:08 35.54956 139.77392 22 ft 21 kts 150°
2026-05-04 14:08 35.54841 139.77471 22 ft 19 kts 150°
2026-05-04 14:08 35.54746 139.77539 20 ft 15 kts 159°
2026-05-04 14:08 35.54689 139.77475 22 ft 11 kts 279°
2026-05-04 14:09 35.54800 139.77374 23 ft 11 kts 330°
2026-05-04 14:09 35.54819 139.77348 24 ft 1 kts 245°
2026-05-04 14:10 35.54726 139.77283 26 ft 0 kts 240°